This is the latest recevied weather packets stored in our database for station/object W8RSN-13. If no packets are shown the sender has not sent any weather packets the latest 10 day(s).
| Time | Temp. | Humidity | Pressure | Rain* | Wind** | Luminosity | Snow |
|---|---|---|---|---|---|---|---|
| 1787532507 | 36.67° C | 25% | 1012.9 hPa | - | - | - | - |
| 1787532206 | 36.67° C | 25% | 1012.7 hPa | - | - | - | - |
| 1787531905 | 36.67° C | 25% | 1012.8 hPa | - | - | - | - |
| 1787531604 | 36.67° C | 25% | 1012.7 hPa | - | - | - | - |
| 1787531303 | 37.22° C | 24% | 1012.8 hPa | - | - | - | - |
| 1787531003 | 38.33° C | 21% | 1012.7 hPa | - | - | - | - |
| 1787530702 | 37.78° C | 21% | 1012.5 hPa | - | - | - | - |
| 1787530400 | 38.33° C | 22% | 1012.4 hPa | - | - | - | - |
| 1787530100 | 38.33° C | 22% | 1012.4 hPa | - | - | - | - |
| 1787529799 | 38.33° C | 22% | 1012.6 hPa | - | - | - | - |
| 1787529498 | 38.33° C | 22% | 1012.4 hPa | - | - | - | - |
| 1787529197 | 38.89° C | 22% | 1012.3 hPa | - | - | - | - |
| 1787528896 | 38.89° C | 22% | 1012.3 hPa | - | - | - | - |
| 1787528615 | 38.89° C | 22% | 1012.2 hPa | - | - | - | - |
| 1787528314 | 38.89° C | 21% | 1012.2 hPa | - | - | - | - |
| 1787528014 | 39.44° C | 21% | 1012.2 hPa | - | - | - | - |
| 1787527713 | 40° C | 21% | 1012.3 hPa | - | - | - | - |
| 1787527412 | 39.44° C | 21% | 1012.1 hPa | - | - | - | - |
| 1787527111 | 40° C | 21% | 1012.4 hPa | - | - | - | - |
| 1787526810 | 40° C | 22% | 1012.5 hPa | - | - | - | - |
| 1787526509 | 39.44° C | 23% | 1012.3 hPa | - | - | - | - |
| 1787526208 | 38.89° C | 23% | 1012.5 hPa | - | - | - | - |
| 1787525907 | 38.33° C | 23% | 1012.5 hPa | - | - | - | - |
| 1787525606 | 38.89° C | 24% | 1012.6 hPa | - | - | - | - |
| 1787525305 | 38.33° C | 24% | 1012.8 hPa | - | - | - | - |
* Rain since midnight (hover to see other rain measurements)
** Current wind speed in m/s (hover to see current wind gust speed)